Location: Arpaise
(41.0333°N, 14.7333°E)
Time: 20:21:00
(UTC+00:00)

Cosmos 846 Rocket - Pass Details

Date: 21 January 2021
Orbit: 948 x 991 km, 82.9° (Epoch: 06 March)

Event Time Altitude Azimuth Distance (km) Brightness Sun altitude
Rises 17:09:25 0° 147° (SSE) 3,670 8.3 -12.2°
Reaches altitude 10° 17:12:26 10° 134° (SE) 2,721 7.5 -12.8°
Maximum altitude 17:17:10 23° 84° (E) 1,931 6.5 -13.7°
Enters shadow 17:21:32 11° 37° (NE) 2,623 7.3 -14.5°
